sat.trackr.live / text

‹ back to catalog

STARLINK-35775

NORAD 67038 · 2025-294J

PAYLOAD ACTIVE UNKNOWN

§ Identity

Operator
Country
US
Launch date
2025-12-11
Launch site
AFETR
Launch vehicle
Mass (kg)
RCS (m²)

Purposes: comms

External: N2YO · Heavens-Above · Gunter

§ Orbital elements

Epoch: 2026-05-25T04:54:21.743712Z

Period
94.27 min
Inclination
42.9992°
Eccentricity
0.0001104
Mean motion
15.27582626 rev/d
Perigee alt
482.3 km
Apogee alt
483.8 km
Semi-major
6,861.2 km
B*
7.4895e-4
RAAN
325.7455°
Arg perigee
58.6358°
Mean anomaly
301.4602°
Rev number
2,651

§ Raw data

STARLINK-357751 67038U 25294J   26145.20441833  .00020406  00000+0  74895-3 0  99962 67038  42.9992 325.7455 0001104  58.6358 301.4602 15.27582626 26517

JSON: /api/v1/satellites/67038 · /tle

For live sub-satellite position, see the globe view (requires WebGL).

§ Visibility from observer

Set your observer location to see the next 7 days of passes ≥ 10°. The values pass through the URL so the page stays shareable.

No JS? Fill the form by hand. The geolocation button needs JavaScript.